Peru, IL

1:10 AM CDT on April 29, 2017 (GMT -0500)
Illinois Valley Regional-Duncan

Weather History for KVYS - July, 2013

Change the Weather History Date:

Wednesday, July 3, 2013

  Actual Average Record
Temperature  
Mean Temperature 65 °F -  
Max Temperature 73 °F 84 °F 95 °F (1966)
Min Temperature 57 °F 60 °F 45 °F (1968)
Growing Degree Days 15 (Base 50)    
Moisture  
Dew Point 58 °F    
Average Humidity 79    
Maximum Humidity 90    
Minimum Humidity 58    
Precipitation  
Precipitation 0.00 in - - ()
Sea Level Pressure  
Sea Level Pressure 30.06 in    
Wind  
Wind Speed 3 mph (NNE)    
Max Wind Speed 7 mph    
Max Gust Speed -    
Visibility 10 miles    
Events      
Averages and records for this station are not official NWS values.
T = Trace of Precipitation, MM = Missing Value Source: NWS Daily Summary

Daily Weather History Graph

Daily Weather History Graph

Search for Another Location

Airport or City:

Trip Planner

Search our weather history database for the weather conditions in past years. The results will help you decide how hot, cold, wet, or windy it might be!

Date:

Astronomy

Jul. 03, 2013 Rise Set
Actual Time 5:28 AM CDT 8:33 PM CDT
Civil Twilight 4:54 AM CDT 9:06 PM CDT
Nautical Twilight 4:11 AM CDT 9:49 PM CDT
Astronomical Twilight 3:20 AM CDT 10:40 PM CDT
Moon 2:07 AM CDT (7/3) 4:42 PM CDT (7/3)
Length of Visible Light 16h 12m
Length of Day
15h 05m
Waning Crescent, 18% of the Moon is Illuminated
Jul 3
Waning Crescent
Jul 8
New
Jul 15
First Quarter
Jul 22
Full
Jul 29
Last Quarter

Hourly Weather History & Observations

Time (CDT) Temp. Dew Point Humidity Pressure Visibility Wind Dir Wind Speed Gust Speed Precip Events Conditions
12:15 AM 60.4 °F 54.7 °F 81% 30.06 in 10.0 mi Calm Calm - N/A   Clear
12:35 AM 60.4 °F 54.7 °F 81% 30.06 in 10.0 mi NNE 4.6 mph - N/A   Clear
12:55 AM 60.3 °F 55.2 °F 83% 30.05 in 10.0 mi NNW 5.8 mph - N/A   Clear
1:15 AM 59.9 °F 55.4 °F 85% 30.05 in 10.0 mi North 4.6 mph - N/A   Clear
1:35 AM 59.9 °F 55.4 °F 85% 30.05 in 10.0 mi North 5.8 mph - N/A   Clear
1:55 AM 58.8 °F 54.5 °F 86% 30.05 in 10.0 mi NE 3.5 mph - N/A   Clear
2:15 AM 58.3 °F 54.5 °F 87% 30.05 in 10.0 mi Calm Calm - N/A   Scattered Clouds
2:35 AM 58.1 °F 54.5 °F 88% 30.05 in 10.0 mi NNE 5.8 mph - N/A   Scattered Clouds
2:55 AM 58.3 °F 54.3 °F 87% 30.04 in 10.0 mi NE 3.5 mph - N/A   Clear
3:15 AM 58.3 °F 54.5 °F 87% 30.04 in 10.0 mi North 5.8 mph - N/A   Mostly Cloudy
3:35 AM 58.1 °F 54.5 °F 88% 30.04 in 10.0 mi NNW 3.5 mph - N/A   Mostly Cloudy
3:55 AM 57.6 °F 54.1 °F 88% 30.03 in 10.0 mi North 5.8 mph - N/A   Scattered Clouds
4:15 AM 57.4 °F 54.3 °F 90% 30.03 in 10.0 mi North 4.6 mph - N/A   Scattered Clouds
4:35 AM 57.4 °F 54.3 °F 90% 30.04 in 10.0 mi Calm Calm - N/A   Scattered Clouds
4:55 AM 57.4 °F 54.5 °F 90% 30.04 in 10.0 mi North 3.5 mph - N/A   Mostly Cloudy
5:15 AM 57.6 °F 54.5 °F 90% 30.05 in 10.0 mi Calm Calm - N/A   Overcast
5:35 AM 58.1 °F 54.9 °F 89% 30.05 in 10.0 mi NW 4.6 mph - N/A   Overcast
5:55 AM 58.1 °F 54.7 °F 88% 30.05 in 10.0 mi NW 6.9 mph - N/A   Overcast
6:15 AM 58.5 °F 54.9 °F 88% 30.06 in 10.0 mi NW 5.8 mph - N/A   Overcast
6:35 AM 58.8 °F 54.9 °F 87% 30.05 in 10.0 mi NNW 6.9 mph - N/A   Overcast
6:55 AM 59.9 °F 55.8 °F 86% 30.06 in 10.0 mi NNW 6.9 mph - N/A   Overcast
7:15 AM 59.9 °F 55.4 °F 85% 30.06 in 10.0 mi NNW 5.8 mph - N/A   Overcast
7:35 AM 59.9 °F 55.4 °F 85% 30.07 in 10.0 mi NNW 4.6 mph - N/A   Overcast
7:55 AM 60.4 °F 55.8 °F 85% 30.08 in 10.0 mi NNW 4.6 mph - N/A   Overcast
8:15 AM 60.4 °F 55.9 °F 85% 30.08 in 10.0 mi NNW 4.6 mph - N/A   Overcast
8:35 AM 60.8 °F 56.3 °F 85% 30.08 in 10.0 mi North 6.9 mph - N/A   Overcast
8:55 AM 61.2 °F 56.7 °F 85% 30.08 in 10.0 mi North 4.6 mph - N/A   Overcast
9:15 AM 61.7 °F 57.0 °F 85% 30.08 in 10.0 mi North 3.5 mph - N/A   Overcast
9:35 AM 62.2 °F 57.6 °F 85% 30.08 in 10.0 mi North 4.6 mph - N/A   Overcast
9:55 AM 62.8 °F 57.9 °F 84% 30.08 in 10.0 mi NNE 4.6 mph - N/A   Overcast
10:15 AM 63.1 °F 58.1 °F 84% 30.08 in 10.0 mi Calm Calm - N/A   Overcast
10:35 AM 63.1 °F 57.9 °F 83% 30.08 in 10.0 mi North 3.5 mph - N/A   Overcast
10:55 AM 63.7 °F 58.5 °F 83% 30.08 in 10.0 mi North 3.5 mph - N/A   Overcast
11:15 AM 64.0 °F 58.5 °F 82% 30.08 in 10.0 mi NNW 4.6 mph - N/A   Overcast
11:35 AM 64.4 °F 58.5 °F 81% 30.09 in 10.0 mi North 3.5 mph - N/A   Overcast
11:55 AM 65.1 °F 58.5 °F 79% 30.08 in 10.0 mi North 4.6 mph - N/A   Overcast
12:15 PM 66.2 °F 58.8 °F 77% 30.08 in 10.0 mi NNW 4.6 mph - N/A   Overcast
12:35 PM 67.3 °F 59.0 °F 75% 30.08 in 10.0 mi NW 5.8 mph - N/A   Overcast
12:55 PM 68.2 °F 59.2 °F 73% 30.07 in 10.0 mi Calm Calm - N/A   Overcast
1:15 PM 68.4 °F 59.2 °F 72% 30.07 in 10.0 mi Calm Calm - N/A   Overcast
1:35 PM 68.4 °F 59.2 °F 72% 30.07 in 10.0 mi Calm Calm - N/A   Overcast
1:55 PM 68.5 °F 59.4 °F 72% 30.07 in 10.0 mi Calm Calm - N/A   Overcast
2:15 PM 68.9 °F 59.5 °F 72% 30.07 in 10.0 mi ENE 3.5 mph - N/A   Overcast
2:35 PM 70.3 °F 59.9 °F 69% 30.06 in 10.0 mi Calm Calm - N/A   Overcast
2:55 PM 69.8 °F 59.5 °F 70% 30.07 in 10.0 mi Calm Calm - N/A   Overcast
3:15 PM 70.0 °F 60.1 °F 71% 30.06 in 10.0 mi Calm Calm - N/A   Overcast
3:35 PM 70.7 °F 60.1 °F 69% 30.05 in 10.0 mi Calm Calm - N/A   Overcast
3:55 PM 70.5 °F 59.9 °F 69% 30.05 in 10.0 mi Calm Calm - N/A   Overcast
4:15 PM 71.1 °F 59.9 °F 68% 30.05 in 10.0 mi Calm Calm - N/A   Overcast
4:35 PM 72.7 °F 60.1 °F 64% 30.05 in 10.0 mi Calm Calm - N/A   Mostly Cloudy
4:55 PM 71.6 °F 59.4 °F 65% 30.05 in 10.0 mi Calm Calm - N/A   Mostly Cloudy
5:15 PM 71.6 °F 60.1 °F 67% 30.05 in 10.0 mi ESE 3.5 mph - N/A   Mostly Cloudy
5:35 PM 72.7 °F 61.5 °F 68% 30.04 in 10.0 mi East 4.6 mph - N/A   Mostly Cloudy
5:55 PM 73.4 °F 60.1 °F 63% 30.04 in 10.0 mi SSE 3.5 mph - N/A   Scattered Clouds
6:15 PM 73.4 °F 59.2 °F 61% 30.04 in 10.0 mi Calm Calm - N/A   Scattered Clouds
6:35 PM 73.2 °F 57.6 °F 58% 30.03 in 10.0 mi Calm Calm - N/A   Clear
6:55 PM 72.9 °F 57.6 °F 59% 30.04 in 10.0 mi Calm Calm - N/A   Clear
7:15 PM 72.9 °F 57.2 °F 58% 30.03 in 10.0 mi Calm Calm - N/A   Clear
7:35 PM 72.9 °F 58.1 °F 60% 30.04 in 10.0 mi Calm Calm - N/A   Clear
7:55 PM 71.6 °F 61.0 °F 69% 30.04 in 10.0 mi East 3.5 mph - N/A   Clear
8:15 PM 69.3 °F 61.3 °F 76% 30.04 in 10.0 mi East 4.6 mph - N/A   Clear
8:35 PM 68.0 °F 61.2 °F 79% 30.04 in 10.0 mi East 5.8 mph - N/A   Clear
8:55 PM 67.5 °F 61.0 °F 80% 30.04 in 10.0 mi East 4.6 mph - N/A   Clear
9:15 PM 66.6 °F 61.0 °F 82% 30.05 in 10.0 mi ESE 4.6 mph - N/A   Clear
9:35 PM 65.7 °F 60.8 °F 84% 30.06 in 10.0 mi ESE 4.6 mph - N/A   Clear
9:55 PM 66.2 °F 60.8 °F 83% 30.07 in 10.0 mi ESE 5.8 mph - N/A   Clear
10:15 PM 65.7 °F 60.8 °F 84% 30.07 in 10.0 mi ESE 5.8 mph - N/A   Clear
10:35 PM 64.9 °F 60.6 °F 86% 30.08 in 10.0 mi SE 5.8 mph - N/A   Clear
10:55 PM 64.9 °F 60.8 °F 86% 30.07 in 10.0 mi SE 3.5 mph - N/A   Clear
11:15 PM 64.6 °F 60.8 °F 88% 30.07 in 10.0 mi SE 4.6 mph - N/A   Clear
11:35 PM 63.7 °F 59.7 °F 87% 30.07 in 7.0 mi ESE 3.5 mph - N/A   Clear
11:55 PM 63.7 °F 60.3 °F 89% 30.08 in 7.0 mi ESE 4.6 mph - N/A   Clear